TimeMST,TemperatureF,Dew PointF,Humidity,Sea Level PressureIn,VisibilityMPH,Wind Direction,Wind SpeedMPH,Gust SpeedMPH,PrecipitationIn,Events,Conditions,WindDirDegrees,DateUTC
12:53 AM,12.0,7.0,80,30.20,10.0,SSW,8.1,-,N/A,,Clear,210,2013-12-23 07:53:00
1:53 AM,16.0,10.9,81,30.23,10.0,WSW,3.5,-,N/A,,Clear,240,2013-12-23 08:53:00
2:53 AM,21.9,16.0,78,30.27,10.0,NNE,16.1,24.2,N/A,,Clear,30,2013-12-23 09:53:00
3:53 AM,19.0,12.0,74,30.33,10.0,ENE,8.1,-,N/A,,Partly Cloudy,60,2013-12-23 10:53:00
4:08 AM,19.9,12.9,74,30.28,10.0,NE,8.1,-,N/A,,Mostly Cloudy,50,2013-12-23 11:08:00
4:21 AM,19.9,12.9,74,30.28,10.0,NE,6.9,-,N/A,,Overcast,40,2013-12-23 11:21:00
4:53 AM,18.0,12.9,81,30.39,10.0,NE,10.4,-,N/A,,Overcast,40,2013-12-23 11:53:00
5:51 AM,17.6,12.2,79,30.33,10.0,NE,10.4,-,N/A,,Overcast,40,2013-12-23 12:51:00
5:53 AM,18.0,12.9,81,30.42,10.0,NE,9.2,-,N/A,,Overcast,40,2013-12-23 12:53:00
6:10 AM,18.0,12.9,81,30.34,10.0,ENE,8.1,-,N/A,,Overcast,60,2013-12-23 13:10:00
6:53 AM,17.1,10.9,77,30.46,9.0,NNE,8.1,-,N/A,,Overcast,30,2013-12-23 13:53:00
7:53 AM,17.1,12.0,81,30.50,8.0,East,6.9,-,N/A,,Overcast,80,2013-12-23 14:53:00
8:53 AM,17.1,12.9,84,30.53,5.0,SE,3.5,-,N/A,,Overcast,130,2013-12-23 15:53:00
9:53 AM,18.0,12.0,78,30.56,7.0,South,3.5,-,N/A,,Overcast,180,2013-12-23 16:53:00
10:53 AM,19.0,12.9,77,30.56,9.0,West,3.5,-,N/A,,Overcast,280,2013-12-23 17:53:00
11:53 AM,21.9,14.0,72,30.53,10.0,Calm,Calm,-,N/A,,Mostly Cloudy,0,2013-12-23 18:53:00
12:00 PM,24.1,14.0,65,30.39,10.0,SSW,5.8,-,N/A,,Scattered Clouds,210,2013-12-23 19:00:00
12:53 PM,26.1,14.0,60,30.47,10.0,SW,6.9,-,N/A,,Clear,230,2013-12-23 19:53:00
1:53 PM,28.9,15.1,56,30.42,10.0,SW,5.8,-,N/A,,Clear,230,2013-12-23 20:53:00
2:53 PM,32.0,15.1,50,30.38,10.0,SSW,5.8,-,N/A,,Clear,210,2013-12-23 21:53:00
3:53 PM,34.0,15.1,46,30.35,10.0,SSE,5.8,-,N/A,,Clear,150,2013-12-23 22:53:00
4:53 PM,25.0,12.9,60,30.37,10.0,SE,9.2,-,N/A,,Clear,140,2013-12-23 23:53:00
5:53 PM,24.1,12.9,62,30.35,10.0,SE,10.4,-,N/A,,Clear,140,2013-12-24 00:53:00
6:53 PM,21.9,10.9,63,30.34,10.0,ESE,11.5,-,N/A,,Clear,120,2013-12-24 01:53:00
7:53 PM,17.1,9.0,71,30.36,10.0,East,5.8,-,N/A,,Clear,90,2013-12-24 02:53:00
8:53 PM,15.1,8.1,74,30.36,10.0,North,5.8,-,N/A,,Clear,10,2013-12-24 03:53:00
9:53 PM,15.1,8.1,74,30.34,10.0,Calm,Calm,-,N/A,,Clear,0,2013-12-24 04:53:00
10:53 PM,12.0,7.0,80,30.34,10.0,SSW,4.6,-,N/A,,Clear,200,2013-12-24 05:53:00
11:53 PM,10.9,6.1,81,30.31,10.0,NW,4.6,-,N/A,,Clear,320,2013-12-24 06:53:00